Regional Weather Roundup
Issued by NWS Newport/Morehead, NC

Current Version | Previous Version | Text Only | Print | Product List | Glossary On
Versions: 1 2 3 4 5 6 7 8 9 10 11 12 13 14 15 16 17 18 19 20 21 22 23 24 25 26 27 28 29 30 31 32 33 34 35 36 37 38 39 40 41 42 43 44 45 46 47 48 49 50
000 ASUS42 KMHX 221110 RWRMHX WEATHER ROUNDUP FOR EASTERN NORTH CAROLINA NATIONAL WEATHER SERVICE NEWPORT/MOREHEAD CITY NC 700 AM EDT MON SEP 22 2014 NOTE: "FAIR" INDICATES FEW OR NO CLOUDS BELOW 12,000 FEET WITH NO SIGNIFICANT WEATHER AND/OR OBSTRUCTIONS TO VISIBILITY NCZ015>017-031-032-045>047-102-103-221200- NORTH COAST CITY SKY/WX TMP DP RH WIND PRES REMARKS EDENTON MOCLDY 71 67 88 NW6 29.93R ELIZABETH CITY MOCLDY 70 66 87 W6 29.92R KITTY HAWK MOSUNNY 72 67 86 CALM 29.90R MANTEO MOCLDY 72 67 84 W3 29.91R $$ NCZ045>047-081-094-103-104-221200- CENTRAL COAST CITY SKY/WX TMP DP RH WIND PRES REMARKS FRISCO PTCLDY 72 69 90 W5 29.92R SWANQUARTER N/A 73 N/A N/A W7 29.88R $$ NCZ095-097-098-100-101-221200- SOUTHERN COAST CITY SKY/WX TMP DP RH WIND PRES REMARKS BEAUFORT PTCLDY 75 66 73 W8 29.94R CEDAR ISLAND N/A 73 N/A N/A SW6G12 29.97R JACKSONVILLE MOCLDY 69 65 86 W5 29.94R NEWPORT NOT AVBL PINEY ISLAND MOSUNNY 75 66 73 W7 29.93R WILMINGTON CLEAR 71 65 81 W5 29.95R $$ NCZ011>013-027>030-043-044-078>080-089-090>093-098-221200- COASTAL PLAIN CITY SKY/WX TMP DP RH WIND PRES REMARKS AHOSKIE PTCLDY 66 59 78 CALM 29.94R CLINTON PTCLDY 69 67 94 CALM 29.97R ELIZABETHTOWN PTCLDY 70 65 84 CALM 29.96R GOLDSBORO MOCLDY 71 69 94 CALM 29.94R GREENVILLE PTCLDY 70 64 83 NW3 29.97R HAVELOCK PTCLDY 72 65 78 W8 29.94 KENANSVILLE PTCLDY 70 64 81 CALM 29.96R KINSTON PTCLDY 70 64 83 NW5 29.96R NEW BERN MOCLDY 72 65 78 W3 29.95R RICHLANDS CLOUDY 70 63 78 CALM 29.95R ROANOKE RAPIDS NOT AVBL ROCKY MOUNT MOCLDY 68 56 65 NW7 29.95R WASHINGTON MOCLDY 70 65 85 CALM 29.95R WHITEVILLE CLEAR 69 65 87 CALM 29.95R $$ AMZ130-135-150-152-154-156-158-170-250-252-270-ANZ085-086-088-633-658-670-221200- MARINE OBSERVATIONS STATION/POSITION TIME TEMP WIND PRES WAVE SWELL AIR SEA DIR/SP/G HT/PER HT/PER (UTC) (F) (DEG/KT/KT) (MB) (FT/S) (FT/S) CHESAPEAKE LIGHT 1000 75 340/ 14/ 14 1012.2 BUOY 44014 1100 75 76 320/ 12/ 16 1011.5 6/ 9 5/ 9 DUCK 1100 73 74 270/ 9/ 11 1011.8 2E DUCK 1100 N/A 3/ 9 2/11 OREGON INLET 1100 73 75 270/ 4/ 6 1012.6 BUOY 44095 1100 74 N/A 4/ 9 2/11 20E OREGON INLET NOT AVBL HATTERAS CG NOT AVBL DIAMOND BUOY 1100 80 260/ 19/ 23 1012.8 7/ 6 2/ 9 CAPE LOOKOUT 1000 78 260/ 11/ 13 1012.9 BEAUFORT LAB 1100 75 75 260/ 3/ 6 1013.1 30 SE NEW RIVER 1100 81 82 280/ 19/ 23 1012.7 6/ 6 5 SE WRIGHTSVILL 1000 75 79 270/ 16/ 19 N/A BUOY 41002 1009 80 81 280/ 10/ 12 1016.8 5/ 8 5/ 8 BUOY 41004 1100 81 81 260/ 16/ 17 1014.5 5/ 6 2/ 9 $$

USA.gov is the U.S. government's official web portal to all federal, state and local government web resources and services.